"2016-05-12 00:00:00",1625691,7.932,194.3,6.998,1.415,14.91,104.0849,9.73,11,48.44,0,110.4,13.15,10.52,156.3
"2016-05-12 00:00:30",1625692,5.657,186.9,2.871,0.421,11.97,104.0809,9.72,10.83,47.8,0,110.4,13.19,10.51,148.9
"2016-05-12 00:01:00",1625693,5.473,178.1,6.567,0.418,11.78,104.0824,9.72,10.77,47.78,0,110.4,13.19,10.51,140.1
"2016-05-12 00:01:30",1625694,5.292,182.8,10.22,1.092,12.64,104.083,9.73,10.78,46.29,0,110.4,13.15,10.51,144.8
"2016-05-12 00:02:00",1625695,7.195,191,7.674,1.331,14.84,104.0856,9.73,10.93,46.13,0,110.4,13.15,10.52,153.0
"2016-05-12 00:02:30",1625696,5.195,169.9,5.093,0.431,12.04,104.0836,9.73,10.74,45.53,0,110.4,13.15,10.51,131.9
"2016-05-12 00:03:00",1625697,5.301,181.5,8.29,1.144,13.25,104.0842,9.73,10.83,46.56,0,110.4,13.15,10.52,143.5
"2016-05-12 00:03:30",1625698,6.45,172.5,7.938,1.447,15.25,104.0839,9.73,11,46.43,0,110.4,13.15,10.51,134.5
"2016-05-12 00:04:00",1625699,5.905,166.5,8.33,1.614,14.64,104.0848,9.73,10.94,44.88,0,110.4,13.15,10.52,128.5
"2016-05-12 00:04:30",1625700,5.594,179,4.047,1.138,13.32,104.0854,9.73,10.76,45.35,0,110.4,13.15,10.52,141.0
"2016-05-12 00:05:00",1625701,4.231,166.1,5.759,0.3,11.94,104.087,9.74,10.73,45.99,0,110.4,13.19,10.52,128.1
"2016-05-12 00:05:30",1625702,5.008,175.7,10.25,1.501,13.5,104.0966,9.76,10.85,45.12,0,110.4,13.15,10.55,137.7
"2016-05-12 00:06:00",1625703,5.328,167.9,9.86,1.234,13.65,104.1062,9.79,10.88,46.79,0,110.3,13.15,10.57,129.9
"2016-05-12 00:06:30",1625704,3.984,168.9,6.412,0.235,12.26,104.109,9.79,10.78,45.15,0,110.4,13.19,10.58,130.9
"2016-05-12 00:07:00",1625705,5.52,164.5,5.25,1.547,14.08,104.1172,9.81,10.94,45.06,0,110.4,13.14,10.60,126.5
"2016-05-12 00:07:30",1625706,5.513,166.8,8.64,1.569,14.08,104.1198,9.82,10.97,47.93,0,110.4,13.14,10.61,128.8
"2016-05-12 00:08:00",1625707,5.756,169.5,8.45,1.248,14.93,104.1195,9.82,10.92,47.56,0,110.4,13.14,10.61,131.5
"2016-05-12 00:08:30",1625708,5.569,160.2,11.56,1.044,13.7,104.1195,9.82,10.88,47.38,0,110.4,13.14,10.61,122.2
"2016-05-12 00:09:00",1625709,4.895,159.9,12.67,0.979,13.27,104.1213,9.82,10.88,48.16,0,110.3,13.14,10.61,121.9
"2016-05-12 00:09:30",1625710,5.166,158,10.89,1.656,14.19,104.106,9.78,10.87,48.26,0,110.4,13.14,10.57,120.0
"2016-05-12 00:10:00",1625711,3.928,142.7,10.31,0.714,12.79,104.1069,9.79,10.85,47.99,0,110.4,13.14,10.57,104.7
"2016-05-12 00:10:30",1625712,5.163,153.2,16.72,1.529,15.21,104.1046,9.78,10.96,44.88,0,110.4,13.14,10.57,115.2
"2016-05-12 00:11:00",1625713,5.253,158,10.2,1.327,14.12,104.1059,9.78,10.87,46.07,0,110.4,13.14,10.57,120.0
"2016-05-12 00:11:30",1625714,4.624,150.4,8.33,1.048,13.19,104.1027,9.78,10.84,45.95,0,110.3,13.14,10.56,112.4
"2016-05-12 00:12:00",1625715,4.996,146,8.12,1.399,14.54,104.1005,9.77,10.86,45.31,0,110.4,13.14,10.56,108.0
"2016-05-12 00:12:30",1625716,4.244,172.3,11.74,0.976,13.36,104.0989,9.77,10.83,45.45,0,110.3,13.15,10.55,134.3
"2016-05-12 00:13:00",1625717,4.868,175.6,9.05,1.447,13.82,104.0972,9.76,10.9,45.29,0,110.4,13.15,10.55,137.6
"2016-05-12 00:13:30",1625718,4.687,160.9,10.29,1.3,13.74,104.0935,9.75,10.81,44.75,0,110.4,13.15,10.54,122.9
"2016-05-12 00:14:00",1625719,4.942,150.1,8.03,1.609,14.08,104.0947,9.76,10.86,43.95,0,110.4,13.15,10.54,112.1
"2016-05-12 00:14:30",1625720,5.101,140.9,9.15,1.408,14.27,104.0947,9.76,10.88,43.04,0,110.4,13.15,10.54,102.9
"2016-05-12 00:15:00",1625721,3.407,128.1,3.264,0.361,13.04,104.0947,9.76,10.78,42.48,0,110.4,13.2,10.54,90.1
"2016-05-12 00:15:30",1625722,4.184,131.5,5.508,1.368,14.21,104.0945,9.76,10.8,42.27,0,110.4,13.15,10.54,93.5
"2016-05-12 00:16:00",1625723,4.351,132.2,10.24,1.33,14.67,104.0947,9.76,10.85,42.09,0,110.4,13.15,10.54,94.2
"2016-05-12 00:16:30",1625724,4.365,139.7,7.988,1.26,14.92,104.0947,9.76,10.82,42.17,0,110.4,13.15,10.54,101.7
"2016-05-12 00:17:00",1625725,4.133,149,11.13,1.415,14.23,104.0947,9.76,10.9,42.53,0,110.4,13.15,10.54,111.0
"2016-05-12 00:17:30",1625726,4.46,156.5,7.848,1.213,13.73,104.0947,9.76,10.78,43.06,0,110.4,13.15,10.54,118.5
"2016-05-12 00:18:00",1625727,4.115,152.5,15.25,1.527,13.99,104.0947,9.76,10.85,43.33,0,110.4,13.15,10.54,114.5
"2016-05-12 00:18:30",1625728,4.543,162.7,8.23,1.291,13.83,104.0947,9.76,10.89,43.43,0,110.4,13.15,10.54,124.7
"2016-05-12 00:19:00",1625729,3.591,164.4,3.11,0.273,12.23,104.0947,9.76,10.77,43.38,0,110.4,13.2,10.54,126.4
"2016-05-12 00:19:30",1625730,4.129,169.7,6.809,1.066,13.22,104.0947,9.76,10.85,43.47,0,110.3,13.15,10.54,131.7
"2016-05-12 00:20:00",1625731,4.706,172.8,8.6,1.362,14.54,104.0947,9.76,10.87,43.28,0,110.4,13.15,10.54,134.8
"2016-05-12 00:20:30",1625732,4.872,171.5,11,1.433,15.4,104.0947,9.76,10.96,43.23,0,110.3,13.15,10.54,133.5
"2016-05-12 00:21:00",1625733,4.214,170.2,6.636,1.161,14.05,104.0942,9.75,10.9,43.02,0,110.3,13.15,10.54,132.2
"2016-05-12 00:21:30",1625734,3.526,171.8,5.87,0.856,12.82,104.0883,9.74,10.79,42.76,0,110.3,13.15,10.53,133.8
"2016-05-12 00:22:00",1625735,4.767,174.1,6.963,1.408,14.99,104.0821,9.72,10.93,42.98,0,110.3,13.15,10.51,136.1
"2016-05-12 00:22:30",1625736,3.766,168.8,5.943,1.074,13,104.0781,9.71,10.85,42.86,0,110.3,13.15,10.50,130.8
"2016-05-12 00:23:00",1625737,3.387,169.6,2.114,0.168,11.98,104.077,9.71,10.74,42.66,0,110.3,13.2,10.50,131.6
"2016-05-12 00:23:30",1625738,3.31,172,1.993,0.142,12.16,104.0705,9.69,10.73,42.53,0,110.4,13.2,10.48,134.0
"2016-05-12 00:24:00",1625739,4.424,181.4,6.634,1.38,14.21,104.0615,9.67,10.81,42.6,0,110.3,13.15,10.46,143.4
"2016-05-12 00:24:30",1625740,4.884,180.9,6.931,1.392,15.43,104.0615,9.67,10.9,42.52,0,110.3,13.15,10.46,142.9
"2016-05-12 00:25:00",1625741,4.643,183,8.63,1.352,14.61,104.0627,9.67,10.84,42.33,0,110.4,13.15,10.46,145.0
"2016-05-12 00:25:30",1625742,3.889,179.6,2.911,0.202,12.52,104.0585,9.66,10.79,42.16,0,110.4,13.2,10.45,141.6
"2016-05-12 00:26:00",1625743,5.501,190.5,6.394,1.447,14.51,104.0522,9.65,10.82,42.07,0,110.3,13.15,10.43,152.5
"2016-05-12 00:26:30",1625744,4.612,185.3,5.148,0.748,12.32,104.0501,9.64,10.78,41.73,0,110.4,13.15,10.43,147.3
"2016-05-12 00:27:00",1625745,4.963,186,2.477,0.271,11.6,104.046,9.63,10.67,41.41,0,110.3,13.2,10.42,148.0
"2016-05-12 00:27:30",1625746,5.722,179.8,0.89,0.099,11.55,104.0367,9.61,10.66,41.75,0,110.4,13.2,10.39,141.8
"2016-05-12 00:28:00",1625747,7.707,188,7.242,1.439,15.04,104.0362,9.61,10.9,42.54,0,110.4,13.15,10.39,150.0
"2016-05-12 00:28:30",1625748,7.766,188,7.353,1.397,15.02,104.0351,9.6,10.89,43.23,0,110.3,13.15,10.39,150.0
"2016-05-12 00:29:00",1625749,7.475,190.2,6.843,1.439,15.51,104.0219,9.57,10.88,42.62,0,110.3,13.15,10.36,152.2
"2016-05-12 00:29:30",1625750,5.522,190.2,7.144,1.264,13.7,104.0138,9.55,10.79,41.96,0,110.3,13.16,10.33,152.2
"2016-05-12 00:30:00",1625751,4.084,181.1,3.929,0.368,11.99,104.0097,9.54,10.59,41.57,0,110.3,13.2,10.32,143.1
"2016-05-12 00:30:30",1625752,3.387,175.5,5.566,0.279,12.19,104.0041,9.52,10.58,41.76,0,110.3,13.2,10.31,137.5
"2016-05-12 00:31:00",1625753,2.895,165.9,3.924,0.167,12.43,103.9952,9.5,10.57,41.89,0,110.3,13.2,10.29,127.9
"2016-05-12 00:31:30",1625754,3.346,162.1,3.141,0.247,12.65,103.9837,9.47,10.61,41.97,0,110.3,13.21,10.26,124.1
"2016-05-12 00:32:00",1625755,5.008,167.3,7.657,1.45,15.66,103.9837,9.47,10.71,42.14,0,110.3,13.16,10.26,129.3
"2016-05-12 00:32:30",1625756,4.985,162,9.34,1.433,15.74,103.9864,9.48,10.67,42.11,0,110.3,13.17,10.26,124.0
"2016-05-12 00:33:00",1625757,4.602,161.6,9.96,1.378,14.72,103.9855,9.48,10.63,42.02,0,110.3,13.16,10.26,123.6
"2016-05-12 00:33:30",1625758,4.809,161.1,7.126,1.456,15.35,103.9864,9.48,10.69,42.07,0,110.3,13.16,10.26,123.1
"2016-05-12 00:34:00",1625759,3.093,147.1,4.731,0.277,12.2,103.9893,9.49,10.5,41.8,0,110.3,13.21,10.27,109.1
"2016-05-12 00:34:30",1625760,2.982,147,3.654,0.105,12.21,103.9896,9.49,10.49,41.81,0,110.3,13.21,10.27,109.0
"2016-05-12 00:35:00",1625761,3.049,153.8,1.763,0.134,12.43,103.9922,9.49,10.48,41.8,0,110.3,13.21,10.28,115.8
"2016-05-12 00:35:30",1625762,3.993,151.5,5.392,1.334,13.83,103.9931,9.5,10.58,41.86,0,110.3,13.17,10.28,113.5
"2016-05-12 00:36:00",1625763,4.373,148.8,9.21,1.309,14.79,103.994,9.5,10.68,41.88,0,110.4,13.17,10.28,110.8
"2016-05-12 00:36:30",1625764,4.821,144.6,8.06,1.464,14.88,103.9937,9.5,10.69,41.93,0,110.3,13.17,10.28,106.6
"2016-05-12 00:37:00",1625765,5.629,141.2,7.866,1.502,15.9,103.9946,9.5,10.69,42.11,0,110.3,13.17,10.29,103.2
"2016-05-12 00:37:30",1625766,5.687,139.4,6.981,1.423,15.71,103.9943,9.5,10.67,42.11,0,110.3,13.17,10.28,101.4
"2016-05-12 00:38:00",1625767,4.084,131.1,1.184,0.096,12.57,103.9946,9.5,10.49,41.91,0,110.3,13.17,10.29,93.1
"2016-05-12 00:38:30",1625768,4.004,131.7,1.633,0.133,12.56,103.9999,9.51,10.5,41.85,0,110.3,13.21,10.30,93.7
"2016-05-12 00:39:00",1625769,4.459,136.9,5.723,1.356,13.85,104.0115,9.54,10.59,41.93,0,110.3,13.17,10.33,98.9
"2016-05-12 00:39:30",1625770,4.73,138.4,5.461,1.333,14.44,104.0205,9.57,10.66,41.92,0,110.3,13.17,10.35,100.4
"2016-05-12 00:40:00",1625771,4.777,139.7,7.673,1.391,14.89,104.0267,9.58,10.69,41.86,0,110.3,13.16,10.37,101.7
"2016-05-12 00:40:30",1625772,4.24,138.5,6.507,1.218,14,104.0284,9.59,10.69,41.8,0,110.3,13.16,10.37,100.5
"2016-05-12 00:41:00",1625773,5.183,144.3,7.484,1.479,15.35,104.0284,9.59,10.72,41.74,0,110.3,13.16,10.37,106.3
"2016-05-12 00:41:30",1625774,4.425,141.5,6.536,1.333,14.46,104.0293,9.59,10.72,41.7,0,110.3,13.16,10.37,103.5
"2016-05-12 00:42:00",1625775,3.368,139.2,1.902,0.086,12.34,104.0343,9.6,10.56,41.47,0,110.3,13.2,10.39,101.2
"2016-05-12 00:42:30",1625776,3.309,142.2,1.247,0.182,12.2,104.0425,9.62,10.56,41.41,0,110.3,13.2,10.41,104.2
"2016-05-12 00:43:00",1625777,4.295,143.9,5.982,1.307,13.94,104.0428,9.62,10.68,41.49,0,110.3,13.16,10.41,105.9
"2016-05-12 00:43:30",1625778,4.569,145.6,6.157,1.287,13.99,104.0445,9.63,10.74,41.48,0,110.3,13.16,10.41,107.6
"2016-05-12 00:44:00",1625779,4.275,147.3,6.997,1.28,14.12,104.0473,9.64,10.68,41.33,0,110.3,13.16,10.42,109.3
"2016-05-12 00:44:30",1625780,4.752,143.2,6.779,1.384,14.34,104.051,9.64,10.73,41.31,0,110.3,13.16,10.43,105.2
"2016-05-12 00:45:00",1625781,5.32,141.6,5.836,1.482,14.99,104.0544,9.65,10.8,41.49,0,110.3,13.16,10.44,103.6
"2016-05-12 00:45:30",1625782,5.2,141.7,6.307,1.404,14.81,104.0603,9.67,10.78,41.5,0,110.3,13.16,10.45,103.7
"2016-05-12 00:46:00",1625783,3.956,134,3.021,0.278,12.58,104.0623,9.67,10.62,41.35,0,110.3,13.21,10.46,96.0
"2016-05-12 00:46:30",1625784,4.584,134.5,4.449,1.222,14.04,104.0623,9.67,10.72,41.39,0,110.3,13.17,10.46,96.5
"2016-05-12 00:47:00",1625785,5.031,135.1,5.936,1.303,14.5,104.0623,9.67,10.77,41.45,0,110.3,13.17,10.46,97.1
"2016-05-12 00:47:30",1625786,4.953,133.6,6.989,1.149,13.87,104.0623,9.67,10.73,41.4,0,110.3,13.17,10.46,95.6
"2016-05-12 00:48:00",1625787,5.154,132.9,8.41,1.31,14.42,104.0693,9.69,10.78,41.4,0,110.3,13.17,10.48,94.9
"2016-05-12 00:48:30",1625788,5.273,136.1,7.745,1.352,14.92,104.0781,9.71,10.82,41.44,0,110.3,13.17,10.50,98.1
"2016-05-12 00:49:00",1625789,4.83,136.3,9.41,1.402,14.88,104.0789,9.72,10.89,41.45,0,110.3,13.17,10.50,98.3
"2016-05-12 00:49:30",1625790,3.994,130.3,6.482,1.034,13.48,104.0843,9.73,10.72,41.33,0,110.3,13.17,10.52,92.3
"2016-05-12 00:50:00",1625791,3.272,136.1,4.217,0.208,12.45,104.0922,9.75,10.7,41.31,0,110.3,13.22,10.54,98.1
"2016-05-12 00:50:30",1625792,3.592,146.1,8.02,0.904,12.79,104.0961,9.76,10.81,41.49,0,110.3,13.17,10.55,108.1
"2016-05-12 00:51:00",1625793,4.486,151.7,6.411,1.425,14.33,104.0961,9.76,10.84,41.86,0,110.3,13.17,10.55,113.7
"2016-05-12 00:51:30",1625794,3.091,145.8,3.774,0.158,12.3,104.0961,9.76,10.77,41.68,0,110.3,13.22,10.55,107.8
"2016-05-12 00:52:00",1625795,4.489,153.2,9.44,1.502,14.34,104.099,9.77,10.86,41.7,0,110.3,13.17,10.55,115.2
"2016-05-12 00:52:30",1625796,4.93,164.3,8.92,1.565,14.06,104.1052,9.78,10.87,42.05,0,110.3,13.17,10.57,126.3
"2016-05-12 00:53:00",1625797,4.602,161.5,8.13,1.358,14.43,104.1043,9.78,10.87,42.18,0,110.3,13.17,10.57,123.5
"2016-05-12 00:53:30",1625798,4.206,157.2,5.99,1.319,13.54,104.1054,9.78,10.87,41.95,0,110.3,13.17,10.57,119.2
"2016-05-12 00:54:00",1625799,3.801,161.6,1.549,0.221,11.97,104.0995,9.77,10.77,41.95,0,110.3,13.22,10.55,123.6
"2016-05-12 00:54:30",1625800,4.758,165.1,6.236,1.254,13.43,104.0961,9.76,10.88,42.09,0,110.3,13.17,10.55,127.1
"2016-05-12 00:55:00",1625801,4.585,162.9,5.516,1.181,13.45,104.0961,9.76,10.88,42.02,0,110.3,13.17,10.55,124.9
"2016-05-12 00:55:30",1625802,3.961,161.3,4.027,0.715,12.18,104.0964,9.76,10.81,42.15,0,110.3,13.17,10.55,123.3
"2016-05-12 00:56:00",1625803,5.315,166.4,7.167,1.486,14.22,104.0902,9.74,10.87,42.15,0,110.3,13.17,10.53,128.4
"2016-05-12 00:56:30",1625804,5.563,168.9,7.085,1.362,14.65,104.0795,9.72,10.93,42.19,0,110.3,13.17,10.50,130.9
"2016-05-12 00:57:00",1625805,5.35,170,7.562,1.355,14.41,104.0662,9.68,10.94,42.18,0,110.3,13.16,10.47,132.0
"2016-05-12 00:57:30",1625806,4.975,167,5.349,0.968,12.54,104.0623,9.67,10.73,42.02,0,110.3,13.17,10.46,129.0
"2016-05-12 00:58:00",1625807,5.141,166,5.037,1.133,12.91,104.055,9.65,10.83,42.16,0,110.3,13.16,10.44,128.0
"2016-05-12 00:58:30",1625808,5.872,167.4,7.362,1.326,13.38,104.0431,9.62,10.82,42.16,0,110.3,13.16,10.41,129.4
"2016-05-12 00:59:00",1625809,5.245,162.1,1.028,0.126,11.7,104.0313,9.59,10.71,42.16,0,110.3,13.2,10.38,124.1
"2016-05-12 00:59:30",1625810,6.011,166.4,6.755,1.221,13.15,104.0296,9.59,10.78,42.3,0,110.3,13.16,10.38,128.4
"2016-05-12 01:00:00",1625811,6.721,169.5,7.653,1.441,14.63,104.0197,9.56,10.92,42.48,0,110.3,13.16,10.35,131.5
"2016-05-12 01:00:30",1625812,6.751,169.4,7.256,1.419,14.32,104.0062,9.53,10.84,42.45,0,110.3,13.16,10.32,131.4
"2016-05-12 01:01:00",1625813,6.05,166.1,5.472,1.165,12.79,103.9949,9.5,10.65,42.31,0,110.3,13.16,10.29,128.1
"2016-05-12 01:01:30",1625814,6.264,168.3,6.391,1.182,13.19,103.996,9.5,10.7,42.31,0,110.3,13.16,10.29,130.3
"2016-05-12 01:02:00",1625815,7.185,171.7,7.052,1.4,14.5,103.9969,9.51,10.77,42.37,0,110.3,13.16,10.29,133.7
"2016-05-12 01:02:30",1625816,5.81,161.5,0.603,0.093,11.87,103.9915,9.49,10.59,42.17,0,110.3,13.21,10.28,123.5
"2016-05-12 01:03:00",1625817,6.402,165.4,6.56,1.216,13.29,103.9822,9.47,10.66,42.24,0,110.3,13.17,10.25,127.4
"2016-05-12 01:03:30",1625818,7.186,168.8,7.14,1.383,15.19,103.9771,9.46,10.74,42.28,0,110.3,13.17,10.24,130.8
"2016-05-12 01:04:00",1625819,6.33,165.7,7.896,1.526,14.81,103.9678,9.43,10.71,42.24,0,110.3,13.17,10.22,127.7
"2016-05-12 01:04:30",1625820,5.469,161.2,6.399,1.372,13.4,103.9624,9.42,10.55,42.1,0,110.3,13.17,10.20,123.2
"2016-05-12 01:05:00",1625821,5.263,161.4,5.608,1.189,13.37,103.9619,9.42,10.61,42.09,0,110.3,13.17,10.20,123.4
"2016-05-12 01:05:30",1625822,5.61,159.1,6.33,1.258,13.82,103.9613,9.42,10.61,42.01,0,110.3,13.17,10.20,121.1
"2016-05-12 01:06:00",1625823,4.888,156,0.736,0.04,12.17,103.9628,9.42,10.51,41.85,0,110.3,13.22,10.20,118.0
"2016-05-12 01:06:30",1625824,5.529,157.8,5.879,1.243,13.67,103.9622,9.42,10.53,41.81,0,110.3,13.17,10.20,119.8
"2016-05-12 01:07:00",1625825,6.287,161.7,7.174,1.408,15.66,103.9637,9.42,10.73,42,0,110.3,13.17,10.21,123.7
"2016-05-12 01:07:30",1625826,6.354,159.2,7.434,1.389,14.75,103.964,9.42,10.63,41.93,0,110.3,13.17,10.21,121.2
"2016-05-12 01:08:00",1625827,5.595,153.4,6.675,1.207,13.87,103.9654,9.43,10.57,41.92,0,110.3,13.17,10.21,115.4
"2016-05-12 01:08:30",1625828,6.005,153.1,6.326,1.294,13.9,103.9657,9.43,10.58,41.62,0,110.3,13.17,10.21,115.1
"2016-05-12 01:09:00",1625829,6.04,154.4,7.201,1.279,14.04,103.9688,9.43,10.62,41.19,0,110.3,13.17,10.22,116.4
"2016-05-12 01:09:30",1625830,5.355,153.1,3.255,0.558,12.6,103.9731,9.45,10.5,40.84,0,110.3,13.17,10.23,115.1
"2016-05-12 01:10:00",1625831,5.61,153.9,4.318,0.772,12.74,103.9816,9.47,10.54,40.86,0,110.3,13.17,10.25,115.9
"2016-05-12 01:10:30",1625832,6.956,158.2,7.304,1.396,14.67,103.9862,9.48,10.65,41.81,0,110.3,13.17,10.26,120.2
"2016-05-12 01:11:00",1625833,7.17,160.3,7.399,1.391,15.73,103.987,9.48,10.74,43.33,0,110.3,13.17,10.27,122.3
"2016-05-12 01:11:30",1625834,6.647,156.3,7.655,1.417,15.16,103.9957,9.5,10.67,44.82,0,110.3,13.17,10.29,118.3
"2016-05-12 01:12:00",1625835,5.797,152.8,5.483,1.036,13.2,104.0013,9.52,10.5,44.96,0,110.3,13.17,10.30,114.8
"2016-05-12 01:12:30",1625836,6.083,154,5.992,1.208,13.6,104.0007,9.52,10.65,45.4,0,110.3,13.17,10.30,116.0
"2016-05-12 01:13:00",1625837,6.167,155.4,6.703,1.291,13.82,104.001,9.52,10.57,45.49,0,110.3,13.17,10.30,117.4
"2016-05-12 01:13:30",1625838,5.386,150.2,2.158,0.082,12.42,104.0058,9.53,10.54,45.46,0,110.3,13.22,10.31,112.2
"2016-05-12 01:14:00",1625839,6.454,153,7.443,1.401,14.52,104.0191,9.56,10.74,46.24,0,110.3,13.16,10.35,115.0
"2016-05-12 01:14:30",1625840,6.987,156,7.304,1.419,16.34,104.0277,9.58,10.78,46.8,0,110.3,13.16,10.37,118.0
"2016-05-12 01:15:00",1625841,6.61,155.5,7.46,1.42,15.22,104.0328,9.6,10.68,47.03,0,110.3,13.16,10.38,117.5
"2016-05-12 01:15:30",1625842,5.962,153.6,6.056,1.372,13.72,104.0343,9.6,10.64,47.01,0,110.3,13.16,10.39,115.6
"2016-05-12 01:16:00",1625843,6.168,155.7,7.014,1.232,14.04,104.0366,9.61,10.75,46.9,0,110.3,13.16,10.39,117.7
"2016-05-12 01:16:30",1625844,6.109,156.3,4.799,1.3,13.65,104.0462,9.63,10.67,46.76,0,110.3,13.16,10.42,118.3
"2016-05-12 01:17:00",1625845,5.274,154.3,1.297,0.093,12.33,104.047,9.63,10.61,46.66,0,110.3,13.2,10.42,116.3
"2016-05-12 01:17:30",1625846,6.134,160.5,7.332,1.36,14.61,104.0467,9.63,10.85,45.66,0,110.3,13.16,10.42,122.5
"2016-05-12 01:18:00",1625847,6.966,167.6,6.668,1.34,16.53,104.0518,9.65,10.85,44.07,0,110.3,13.16,10.43,129.6
"2016-05-12 01:18:30",1625848,5.892,161.7,7.176,1.331,14.27,104.0521,9.65,10.75,43.89,0,110.3,13.16,10.43,123.7
"2016-05-12 01:19:00",1625849,5.472,160.1,6.141,1.034,13.55,104.0527,9.65,10.73,42.46,0,110.3,13.17,10.43,122.1
"2016-05-12 01:19:30",1625850,6.145,163.1,7.321,1.318,14.22,104.0508,9.64,10.76,41.94,0,110.3,13.17,10.43,125.1
"2016-05-12 01:20:00",1625851,5.146,157.7,1.45,0.115,12.45,104.0497,9.64,10.69,43.32,0,110.3,13.21,10.43,119.7
"2016-05-12 01:20:30",1625852,4.971,157.5,0.994,0.066,12.09,104.0498,9.64,10.7,43.98,0,110.3,13.22,10.43,119.5
"2016-05-12 01:21:00",1625853,6.412,167.3,6.897,1.42,15.41,104.0448,9.63,10.85,44.7,0,110.3,13.17,10.41,129.3
"2016-05-12 01:21:30",1625854,6.287,166.2,7.482,1.435,15.36,104.044,9.63,10.9,44.74,0,110.3,13.17,10.41,128.2
"2016-05-12 01:22:00",1625855,6.149,165.1,7.687,1.445,15.15,104.0423,9.62,10.8,44.72,0,110.3,13.17,10.41,127.1
"2016-05-12 01:22:30",1625856,5.959,164.4,6.419,1.317,14,104.0343,9.6,10.77,45.5,0,110.3,13.17,10.39,126.4
"2016-05-12 01:23:00",1625857,6.832,168.4,7.33,1.364,14.72,104.0183,9.56,10.74,46.35,0,110.3,13.17,10.35,130.4
"2016-05-12 01:23:30",1625858,5.506,161.7,0.704,0.077,12.16,104.0148,9.55,10.6,46.93,0,110.3,13.22,10.34,123.7
"2016-05-12 01:24:00",1625859,6.07,163.1,5.31,1.077,12.93,104.0178,9.56,10.6,47.39,0,110.3,13.17,10.34,125.1
"2016-05-12 01:24:30",1625860,7.083,165,7.205,1.415,15.65,104.0094,9.54,10.78,47.75,0,110.3,13.17,10.32,127.0
"2016-05-12 01:25:00",1625861,7.16,163.9,7.349,1.4,15.58,104.0026,9.52,10.77,47.81,0,110.3,13.17,10.31,125.9
"2016-05-12 01:25:30",1625862,6.571,160.5,6.7,1.292,14.59,103.9925,9.49,10.72,47.67,0,110.3,13.17,10.28,122.5
"2016-05-12 01:26:00",1625863,7.044,164.6,7.492,1.453,15.5,103.9877,9.48,10.74,47.76,0,110.3,13.17,10.27,126.6
"2016-05-12 01:26:30",1625864,6.432,161.5,6.786,1.298,13.97,103.9915,9.49,10.64,47.66,0,110.3,13.17,10.28,123.5
"2016-05-12 01:27:00",1625865,5.637,157.7,0.43,0.049,12.32,103.9921,9.49,10.51,47.52,0,110.3,13.22,10.28,119.7
"2016-05-12 01:27:30",1625866,6.029,158,4.43,0.966,12.82,103.9953,9.5,10.52,47.59,0,110.3,13.17,10.29,120.0
"2016-05-12 01:28:00",1625867,7.276,163.3,7.509,1.383,15.84,103.9921,9.49,10.73,47.88,0,110.3,13.17,10.28,125.3
"2016-05-12 01:28:30",1625868,7.517,166.8,7.054,1.361,16.31,103.9904,9.49,10.72,47.81,0,110.3,13.17,10.27,128.8
"2016-05-12 01:29:00",1625869,6.566,162.9,6.815,1.358,14.61,103.9927,9.5,10.6,47.61,0,110.3,13.17,10.28,124.9
"2016-05-12 01:29:30",1625870,6.553,164.3,6.975,1.316,14.31,103.9936,9.5,10.58,47.55,0,110.3,13.17,10.28,126.3
"2016-05-12 01:30:00",1625871,6.305,160.8,6.626,1.282,13.86,103.9933,9.5,10.56,47.66,0,110.3,13.17,10.28,122.8
"2016-05-12 01:30:30",1625872,5.542,157.4,0.194,0.028,12.33,103.9956,9.5,10.47,47.74,0,110.3,13.22,10.29,119.4
"2016-05-12 01:31:00",1625873,5.878,158.4,4.297,0.807,13.05,103.9948,9.5,10.56,47.87,0,110.3,13.17,10.29,120.4
"2016-05-12 01:31:30",1625874,7.498,165.4,7.08,1.391,15.76,103.9933,9.5,10.65,47.96,0,110.3,13.17,10.28,127.4
"2016-05-12 01:32:00",1625875,7.83,164,6.884,1.377,16.4,103.993,9.5,10.69,48.14,0,110.3,13.17,10.28,126.0
"2016-05-12 01:32:30",1625876,7.254,160.1,7.192,1.424,14.92,103.9933,9.5,10.61,48.08,0,110.3,13.17,10.28,122.1
"2016-05-12 01:33:00",1625877,7.442,158.4,7.342,1.345,15.09,103.995,9.5,10.69,48.15,0,110.3,13.17,10.29,120.4
"2016-05-12 01:33:30",1625878,6.554,152.6,3.671,0.802,12.82,103.9956,9.5,10.48,47.87,0,110.3,13.17,10.29,114.6
"2016-05-12 01:34:00",1625879,6.428,152.3,0.753,0.083,12.37,103.9956,9.5,10.48,47.84,0,110.3,13.21,10.29,114.3
"2016-05-12 01:34:30",1625880,7.724,158.5,7.217,1.425,14.55,103.9953,9.5,10.6,47.9,0,110.3,13.17,10.29,120.5
"2016-05-12 01:35:00",1625881,8.16,161,7.191,1.4,16.07,103.9956,9.5,10.72,48,0,110.2,13.17,10.29,123.0
"2016-05-12 01:35:30",1625882,8.04,159.8,7.645,1.359,15.99,103.9959,9.5,10.73,48.02,0,110.3,13.17,10.29,121.8
"2016-05-12 01:36:00",1625883,8.45,160.6,7.149,1.4,16.05,103.9959,9.5,10.68,47.94,0,110.3,13.17,10.29,122.6
"2016-05-12 01:36:30",1625884,7.593,157.3,6.808,1.165,13.96,103.9959,9.5,10.65,47.74,0,110.3,13.17,10.29,119.3
"2016-05-12 01:37:00",1625885,6.95,153.2,1.308,0.103,12.18,103.9959,9.5,10.49,47.68,0,110.3,13.22,10.29,115.2
"2016-05-12 01:37:30",1625886,6.854,155.7,1.028,0.193,12.34,103.9959,9.5,10.5,47.55,0,110.3,13.22,10.29,117.7
"2016-05-12 01:38:00",1625887,8.51,163.6,6.992,1.291,15.78,103.9959,9.5,10.68,47.75,0,110.3,13.18,10.29,125.6
"2016-05-12 01:38:30",1625888,8.55,165.1,7.004,1.429,16.18,103.9942,9.5,10.73,47.96,0,110.3,13.18,10.28,127.1
"2016-05-12 01:39:00",1625889,7.869,165,7.288,1.407,15.87,103.9846,9.47,10.68,47.73,0,110.2,13.18,10.26,127.0
"2016-05-12 01:39:30",1625890,8.07,162.7,6.603,1.406,14.56,103.9773,9.46,10.57,47.62,0,110.3,13.18,10.24,124.7
"2016-05-12 01:40:00",1625891,7.655,162.8,6.813,1.188,13.67,103.9646,9.42,10.57,47.56,0,110.3,13.18,10.21,124.8
"2016-05-12 01:40:30",1625892,6.847,159.3,0.844,0.172,12.21,103.9621,9.42,10.44,47.48,0,110.3,13.22,10.20,121.3
"2016-05-12 01:41:00",1625893,7.862,164.8,7.072,1.467,14.83,103.9609,9.41,10.54,47.6,0,110.3,13.18,10.20,126.8
"2016-05-12 01:41:30",1625894,8.41,169.1,6.857,1.438,15.96,103.9482,9.38,10.64,47.67,0,110.2,13.18,10.17,131.1
"2016-05-12 01:42:00",1625895,8.62,168.5,7.428,1.358,15.96,103.9322,9.34,10.64,47.92,0,110.3,13.18,10.13,130.5
"2016-05-12 01:42:30",1625896,8.02,168.5,7.047,1.44,14.87,103.9282,9.33,10.56,47.78,0,110.3,13.18,10.12,130.5
"2016-05-12 01:43:00",1625897,7.692,169.5,7.092,1.442,14.78,103.9279,9.33,10.53,47.4,0,110.3,13.18,10.11,131.5
"2016-05-12 01:43:30",1625898,6.34,163.1,1.538,0.202,12.17,103.9181,9.3,10.35,47.24,0,110.2,13.23,10.09,125.1
"2016-05-12 01:44:00",1625899,6.641,158.6,2.188,0.446,12.19,103.8966,9.25,10.33,47.26,0,110.2,13.23,10.03,120.6
"2016-05-12 01:44:30",1625900,8.64,166.4,7.189,1.402,15.24,103.8943,9.24,10.52,47.84,0,110.2,13.18,10.03,128.4
"2016-05-12 01:45:00",1625901,9.06,170.2,7.315,1.389,16.26,103.8943,9.24,10.54,48.54,0,110.2,13.18,10.03,132.2
"2016-05-12 01:45:30",1625902,8.88,169.3,7.094,1.38,16.3,103.8867,9.22,10.55,48.76,0,110.2,13.18,10.01,131.3
"2016-05-12 01:46:00",1625903,8.21,167.4,7.617,1.413,15.05,103.8754,9.2,10.49,48.78,0,110.2,13.18,9.98,129.4
"2016-05-12 01:46:30",1625904,6.881,163.3,4.276,0.892,12.64,103.8644,9.17,10.25,48.32,0,110.2,13.18,9.95,125.3
"2016-05-12 01:47:00",1625905,6.996,160.4,1.144,0.086,12.28,103.8605,9.16,10.22,48.58,0,110.2,13.23,9.94,122.4
"2016-05-12 01:47:30",1625906,7.543,166.3,6.279,1.168,13.86,103.8596,9.16,10.33,48.63,0,110.2,13.18,9.94,128.3
"2016-05-12 01:48:00",1625907,8.31,172.5,7.746,1.417,15.54,103.8517,9.13,10.44,48.54,0,110.2,13.18,9.92,134.5